TTW537 RCTP-RCKH

Flight info

Callsign TTW537
Flight time N/A
Altitude 36000
Route TINHO1A TINHO Q11 POTIB M646 LAO/N0459F350 B462 IPATA W25 BATAY BATAY3P
Aircraft A320/M-SDE3FGHIRWY/LB1

Departure

Time N/A
Airport Taiwan Taoyuan International Airport (RCTP)

Arrival

Time 2026-04-21 13:25
Airport Kaohsiung International Airport (RCKH)
Time Latitude Longitude Altitude Speed Heading
2026-04-21 12:30 17.50904 120.93046 36708 ft 443 kts 354°
2026-04-21 12:31 17.53991 120.92894 36912 ft 445 kts 354°
2026-04-21 12:31 17.60180 120.92632 36980 ft 448 kts 355°
2026-04-21 12:32 17.66407 120.92358 36972 ft 448 kts 354°
2026-04-21 12:32 17.72647 120.92056 36972 ft 448 kts 354°
2026-04-21 12:33 17.78835 120.91747 36964 ft 448 kts 354°
2026-04-21 12:33 17.85070 120.91436 36966 ft 447 kts 354°
2026-04-21 12:34 17.91302 120.91138 36971 ft 448 kts 354°
2026-04-21 12:34 17.97536 120.90842 36973 ft 448 kts 354°
2026-04-21 12:35 18.03734 120.90537 36972 ft 448 kts 354°
2026-04-21 12:35 18.09971 120.90222 36982 ft 448 kts 354°
2026-04-21 12:36 18.16208 120.89922 36974 ft 448 kts 354°
2026-04-21 12:36 18.22447 120.89622 36971 ft 448 kts 354°
2026-04-21 12:37 18.28672 120.89325 36972 ft 448 kts 354°
2026-04-21 12:37 18.34876 120.89019 36967 ft 448 kts 354°
2026-04-21 12:38 18.41118 120.88710 36965 ft 447 kts 354°
2026-04-21 12:38 18.47306 120.88405 36960 ft 448 kts 354°
2026-04-21 12:39 18.53545 120.88098 36957 ft 448 kts 354°
2026-04-21 12:39 18.59743 120.87792 36955 ft 448 kts 354°
2026-04-21 12:40 18.65976 120.87485 36956 ft 448 kts 354°
2026-04-21 12:40 18.72210 120.87183 36953 ft 448 kts 354°
2026-04-21 12:41 18.78452 120.86881 36958 ft 448 kts 354°
2026-04-21 12:41 18.84651 120.86577 36965 ft 448 kts 354°
2026-04-21 12:42 18.90892 120.86271 36967 ft 448 kts 354°
2026-04-21 12:42 18.97136 120.85961 36971 ft 449 kts 354°
2026-04-21 12:43 19.03377 120.85645 36975 ft 448 kts 354°
2026-04-21 12:43 19.09575 120.85341 36971 ft 448 kts 354°
2026-04-21 12:44 19.15813 120.85032 36975 ft 448 kts 354°
2026-04-21 12:44 19.22065 120.84731 36976 ft 448 kts 354°
2026-04-21 12:45 19.28258 120.84432 36975 ft 448 kts 354°
2026-04-21 12:45 19.34501 120.84116 36977 ft 448 kts 353°
2026-04-21 12:46 19.40722 120.83799 36975 ft 448 kts 354°
2026-04-21 12:46 19.46951 120.83493 36972 ft 447 kts 354°
2026-04-21 12:47 19.53140 120.83193 36974 ft 447 kts 354°
2026-04-21 12:47 19.59367 120.82884 36979 ft 448 kts 353°
2026-04-21 12:48 19.65589 120.82568 36977 ft 448 kts 353°
2026-04-21 12:48 19.71819 120.82252 36980 ft 448 kts 353°
2026-04-21 12:49 19.78018 120.81943 36982 ft 448 kts 354°
2026-04-21 12:49 19.84255 120.81647 36981 ft 448 kts 354°
2026-04-21 12:50 19.90487 120.81342 36983 ft 448 kts 353°
2026-04-21 12:50 19.96715 120.81029 36984 ft 447 kts 353°
2026-04-21 12:51 20.02901 120.80712 36991 ft 447 kts 353°
2026-04-21 12:51 20.09121 120.80392 36986 ft 447 kts 353°
2026-04-21 12:52 20.15357 120.80085 36984 ft 447 kts 353°
2026-04-21 12:52 20.21578 120.79775 36985 ft 447 kts 353°
2026-04-21 12:53 20.27803 120.79462 36984 ft 447 kts 353°
2026-04-21 12:53 20.33992 120.79155 36986 ft 447 kts 353°
2026-04-21 12:54 20.40223 120.78844 36982 ft 448 kts 353°
2026-04-21 12:54 20.46462 120.78531 36984 ft 448 kts 353°
2026-04-21 12:55 20.52696 120.78212 36989 ft 448 kts 353°
2026-04-21 12:55 20.58902 120.77897 36989 ft 448 kts 353°
2026-04-21 12:56 20.65149 120.77579 36986 ft 449 kts 353°
2026-04-21 12:56 20.71367 120.77265 36994 ft 449 kts 353°
2026-04-21 12:57 20.77629 120.76954 36993 ft 449 kts 353°
2026-04-21 12:57 20.83853 120.76648 36999 ft 449 kts 354°
2026-04-21 12:58 20.90108 120.76338 36658 ft 449 kts 353°
2026-04-21 12:58 20.93235 120.76178 36413 ft 450 kts 353°
2026-04-21 12:58 20.96371 120.76016 36170 ft 450 kts 353°
2026-04-21 12:58 20.99494 120.75784 35854 ft 448 kts 348°
2026-04-21 12:59 21.02500 120.75128 35184 ft 445 kts 339°
2026-04-21 12:59 21.05461 120.74079 34367 ft 450 kts 337°
2026-04-21 12:59 21.08447 120.72957 33430 ft 457 kts 336°
2026-04-21 12:59 21.11446 120.71765 32545 ft 461 kts 336°
2026-04-21 13:00 21.14454 120.70519 31731 ft 463 kts 335°
2026-04-21 13:00 21.17404 120.69263 31221 ft 458 kts 335°
2026-04-21 13:00 21.20357 120.67993 30628 ft 456 kts 335°
2026-04-21 13:00 21.23298 120.66728 30029 ft 454 kts 335°
2026-04-21 13:01 21.26231 120.65474 29378 ft 451 kts 335°
2026-04-21 13:01 21.29138 120.64242 28794 ft 446 kts 335°
2026-04-21 13:01 21.32012 120.63030 28211 ft 442 kts 335°
2026-04-21 13:01 21.34866 120.61833 27629 ft 438 kts 336°
2026-04-21 13:02 21.37700 120.60648 27055 ft 435 kts 335°
2026-04-21 13:02 21.40512 120.59471 26483 ft 432 kts 335°
2026-04-21 13:02 21.46034 120.57149 25374 ft 426 kts 335°
2026-04-21 13:03 21.48788 120.55986 24840 ft 423 kts 335°
2026-04-21 13:03 21.51520 120.54832 24305 ft 420 kts 335°
2026-04-21 13:03 21.54239 120.53682 23801 ft 417 kts 335°
2026-04-21 13:03 21.56905 120.52553 23255 ft 415 kts 335°
2026-04-21 13:04 21.59583 120.51418 22752 ft 411 kts 335°
2026-04-21 13:04 21.62226 120.50300 22267 ft 406 kts 335°
2026-04-21 13:04 21.64852 120.49188 21767 ft 403 kts 335°
2026-04-21 13:04 21.67455 120.48083 21275 ft 400 kts 335°
2026-04-21 13:05 21.70044 120.46984 20775 ft 398 kts 335°
2026-04-21 13:05 21.72619 120.45892 20264 ft 396 kts 335°
2026-04-21 13:05 21.75176 120.44806 19746 ft 394 kts 335°
2026-04-21 13:05 21.77718 120.43726 19221 ft 392 kts 335°
2026-04-21 13:06 21.80254 120.42653 18686 ft 391 kts 335°
2026-04-21 13:06 21.82751 120.41595 18139 ft 389 kts 335°
2026-04-21 13:06 21.85265 120.40526 17561 ft 387 kts 335°
2026-04-21 13:06 21.87761 120.39465 17020 ft 383 kts 335°
2026-04-21 13:07 21.90237 120.38412 16482 ft 380 kts 335°
2026-04-21 13:07 21.92690 120.37370 15947 ft 377 kts 335°
2026-04-21 13:07 21.95128 120.36334 15415 ft 374 kts 335°
2026-04-21 13:07 21.97544 120.35307 14879 ft 372 kts 335°
2026-04-21 13:08 21.99140 120.34628 14529 ft 371 kts 335°
2026-04-21 13:08 22.02321 120.33275 13819 ft 370 kts 335°
2026-04-21 13:08 22.04738 120.32242 13236 ft 368 kts 335°
2026-04-21 13:08 22.06312 120.31569 12881 ft 366 kts 336°
2026-04-21 13:09 22.09427 120.30242 12244 ft 360 kts 336°
2026-04-21 13:09 22.11754 120.29252 11725 ft 358 kts 336°
2026-04-21 13:09 22.13294 120.28598 11381 ft 357 kts 336°
2026-04-21 13:09 22.15605 120.27615 10866 ft 356 kts 336°
2026-04-21 13:10 22.17912 120.26631 10418 ft 353 kts 336°
2026-04-21 13:10 22.20162 120.25671 10292 ft 341 kts 336°
2026-04-21 13:10 22.22335 120.24743 10171 ft 329 kts 335°
2026-04-21 13:10 22.24402 120.23862 10056 ft 318 kts 336°
2026-04-21 13:11 22.26435 120.22992 9907 ft 310 kts 336°
2026-04-21 13:11 22.28431 120.22136 9572 ft 308 kts 336°
2026-04-21 13:11 22.30422 120.21281 9218 ft 307 kts 336°
2026-04-21 13:11 22.32407 120.20430 8879 ft 306 kts 336°
2026-04-21 13:12 22.34384 120.19584 8498 ft 306 kts 337°
2026-04-21 13:12 22.36422 120.18713 7701 ft 321 kts 337°
2026-04-21 13:12 22.38521 120.17814 6875 ft 336 kts 337°
2026-04-21 13:12 22.40744 120.16860 6007 ft 349 kts 337°
2026-04-21 13:13 22.43039 120.15874 5092 ft 361 kts 338°
2026-04-21 13:13 22.45391 120.14864 4367 ft 365 kts 339°
2026-04-21 13:13 22.47758 120.13851 3719 ft 365 kts 340°
2026-04-21 13:13 22.50100 120.12849 3459 ft 354 kts 340°
2026-04-21 13:14 22.52344 120.11886 3383 ft 338 kts 340°
2026-04-21 13:14 22.54469 120.10881 3096 ft 332 kts 330°
2026-04-21 13:14 22.56249 120.09367 3007 ft 319 kts 314°
2026-04-21 13:14 22.57522 120.07511 3015 ft 303 kts 297°
2026-04-21 13:15 22.58306 120.05460 3014 ft 285 kts 282°
2026-04-21 13:15 22.58610 120.03403 3019 ft 267 kts 269°
2026-04-21 13:15 22.58670 120.01447 3023 ft 252 kts 268°
2026-04-21 13:15 22.58674 119.99599 3025 ft 239 kts 260°
2026-04-21 13:16 22.58353 119.97882 3025 ft 233 kts 246°
2026-04-21 13:16 22.57668 119.96316 3030 ft 228 kts 231°
2026-04-21 13:16 22.56677 119.95006 3035 ft 223 kts 218°
2026-04-21 13:16 22.55415 119.94111 3032 ft 213 kts 193°
2026-04-21 13:17 22.53983 119.93934 3033 ft 205 kts 168°
2026-04-21 13:17 22.52679 119.94490 3033 ft 202 kts 141°
2026-04-21 13:17 22.51800 119.95629 3029 ft 202 kts 116°
2026-04-21 13:17 22.51526 119.97128 3031 ft 209 kts 89°
2026-04-21 13:18 22.51989 119.98640 3028 ft 218 kts 62°
2026-04-21 13:18 22.52831 120.00019 3027 ft 220 kts 62°
2026-04-21 13:18 22.53680 120.01400 3024 ft 220 kts 62°
2026-04-21 13:18 22.54531 120.02778 3027 ft 220 kts 62°
2026-04-21 13:19 22.55383 120.04154 3021 ft 221 kts 61°
2026-04-21 13:19 22.56224 120.05523 3022 ft 221 kts 61°
2026-04-21 13:19 22.57075 120.06909 3021 ft 221 kts 61°
2026-04-21 13:19 22.57922 120.08295 3018 ft 218 kts 64°
2026-04-21 13:20 22.58419 120.09799 3017 ft 210 kts 88°
2026-04-21 13:20 22.58419 120.11367 3017 ft 208 kts 95°
2026-04-21 13:20 22.58373 120.12888 3015 ft 197 kts 95°
2026-04-21 13:20 22.58329 120.14348 3014 ft 192 kts 96°
2026-04-21 13:21 22.58289 120.15722 3021 ft 173 kts 96°
2026-04-21 13:21 22.58252 120.16984 2887 ft 163 kts 95°
2026-04-21 13:21 22.58217 120.18168 2710 ft 152 kts 95°
2026-04-21 13:21 22.58183 120.19280 2550 ft 144 kts 95°
2026-04-21 13:22 22.58152 120.20334 2364 ft 141 kts 95°
2026-04-21 13:22 22.58120 120.21388 2180 ft 139 kts 95°
2026-04-21 13:22 22.58088 120.22434 2002 ft 139 kts 94°
2026-04-21 13:22 22.58057 120.23479 1820 ft 139 kts 95°
2026-04-21 13:23 22.58025 120.24524 1642 ft 138 kts 95°
2026-04-21 13:23 22.57994 120.25569 1461 ft 138 kts 95°
2026-04-21 13:23 22.57963 120.26599 1277 ft 139 kts 93°
2026-04-21 13:23 22.57931 120.27649 1101 ft 140 kts 94°
2026-04-21 13:24 22.57899 120.28706 925 ft 140 kts 94°
2026-04-21 13:24 22.57867 120.29763 770 ft 141 kts 91°
2026-04-21 13:24 22.57835 120.30823 586 ft 141 kts 91°
2026-04-21 13:24 22.57803 120.31893 390 ft 143 kts 89°
2026-04-21 13:25 22.57770 120.32975 211 ft 143 kts 90°
2026-04-21 13:25 22.57735 120.34058 49 ft 140 kts 89°
2026-04-21 13:25 22.57711 120.34953 38 ft 89 kts 92°
2026-04-21 13:25 22.57698 120.35326 39 ft 30 kts 92°
2026-04-21 13:26 22.57691 120.35554 37 ft 31 kts 92°
2026-04-21 13:26 22.57684 120.35767 39 ft 26 kts 91°
2026-04-21 13:26 22.57663 120.35902 39 ft 15 kts 135°
2026-04-21 13:26 22.57560 120.35915 38 ft 12 kts 181°
2026-04-21 13:27 22.57514 120.35847 38 ft 13 kts 270°
2026-04-21 13:27 22.57517 120.35737 38 ft 16 kts 271°
2026-04-21 13:27 22.57521 120.35609 38 ft 18 kts 272°
2026-04-21 13:27 22.57525 120.35473 38 ft 14 kts 271°
2026-04-21 13:28 22.57528 120.35357 38 ft 17 kts 271°
2026-04-21 13:28 22.57533 120.35224 38 ft 16 kts 272°
2026-04-21 13:28 22.57537 120.35092 38 ft 19 kts 271°
2026-04-21 13:28 22.57541 120.34951 38 ft 17 kts 272°
2026-04-21 13:29 22.57545 120.34815 38 ft 17 kts 271°
2026-04-21 13:29 22.57549 120.34688 38 ft 13 kts 272°
2026-04-21 13:29 22.57552 120.34600 39 ft 13 kts 271°
2026-04-21 13:29 22.57555 120.34495 39 ft 15 kts 272°
2026-04-21 13:30 22.57559 120.34371 39 ft 18 kts 272°
2026-04-21 13:30 22.57564 120.34245 39 ft 17 kts 271°
2026-04-21 13:30 22.57556 120.34141 36 ft 12 kts 236°
2026-04-21 13:30 22.57470 120.34121 38 ft 14 kts 181°
2026-04-21 13:31 22.57407 120.34156 38 ft 12 kts 103°
2026-04-21 13:31 22.57404 120.34252 38 ft 14 kts 91°
2026-04-21 13:31 22.57388 120.34324 36 ft 8 kts 148°
2026-04-21 13:31 22.57322 120.34325 38 ft 10 kts 181°
2026-04-21 13:32 22.57272 120.34319 37 ft 3 kts 218°
2026-04-21 13:32 22.57266 120.34288 38 ft 5 kts 268°
2026-04-21 13:32 22.57266 120.34242 38 ft 0 kts 270°
2026-04-21 13:32 22.57266 120.34237 38 ft 0 kts 269°